This demonstration page uses our WeatherBlox Daily Observations layout. Learn more.

Left ArrowRight Arrow

Hourly Observations for December 28, 2021

Temp ( °F °C ) Dew Point ( °F °C ) Humidity (%) Winds ( mph kmh ) Pressure ( in mb ) Visibility ( mi km ) Precip ( " mm )
12:53 am 00:53 Clear -28 -33.3 -34 -36.7 71 71 Calm 29.83 1010 10 16 0.00 0.00
1:53 am 01:53 Clear -28 -33.3 -32 -35.6 80 80 Calm 29.85 1011 10 16 0.00 0.00
2:53 am 02:53 Cloudy -26 -32.2 -31 -35 76 76 SSW 6 9 29.86 1011 10 16 0.00 0.00
3:53 am 03:53 Clear -29 -34 N/A N/A W 7 11 29.88 1012 10 16 0.00 0.00
4:53 am 04:53 Cloudy -27 -32.8 -32 -35.6 76 76 WSW 8 13 29.89 1012 10 16 0.00 0.00
5:53 am 05:53 Clear -29 -34 N/A N/A WSW 7 11 29.91 1013 10 16 0.00 0.00
6:53 am 06:53 Clear -29 -34 N/A N/A SSW 7 11 29.93 1013 10 16 0.00 0.00
7:53 am 07:53 Clear -33 -36 N/A N/A W 3 6 29.93 1014 10 16 0.00 0.00
8:53 am 08:53 Sunny -28 -33.3 -34 -36.7 71 71 Calm 29.93 1013 10 16 0.00 0.00
9:53 am 09:53 Sunny -24 -31.1 -30 -34.4 73 73 Calm 29.92 1013 7 11 0.00 0.00
10:53 am 10:53 Sunny -19 -28.3 -25 -31.7 73 73 Calm 29.93 1014 10 16 0.00 0.00
11:53 am 11:53 Cloudy -17 -27.2 -23 -30.6 73 73 Calm 29.91 1013 10 16 0.00 0.00
12:53 pm 12:53 Cloudy -16 -26.7 -23 -30.6 70 70 NW 3 6 29.90 1013 10 16 0.00 0.00
1:53 pm 13:53 Mostly Cloudy -13 -25 -23 -30.6 60 60 Calm 29.89 1012 10 16 0.00 0.00
2:53 pm 14:53 Mostly Cloudy -13 -25 -21 -29.4 67 67 ESE 5 7 29.88 1012 10 16 0.00 0.00
3:53 pm 15:53 Mostly Cloudy -14 -25.6 -21 -29.4 71 71 Calm 29.90 1013 10 16 0.00 0.00
4:53 pm 16:53 Cloudy -13 -25 -20 -28.9 70 70 NE 3 6 29.91 1013 10 16 0.00 0.00
5:53 pm 17:53 Cloudy -13 -25 -20 -28.9 70 70 ENE 5 7 29.93 1014 10 16 0.00 0.00
6:53 pm 18:53 Cloudy -12 -24.4 -20 -28.9 66 66 Calm 29.96 1015 10 16 0.00 0.00
7:53 pm 19:53 Cloudy -11 -23.9 -18 -27.8 70 70 Calm 29.97 1015 10 16 0.00 0.00
8:53 pm 20:53 Cloudy with Haze -10 -23.3 -16 -26.7 74 74 Calm 29.98 1015 5 8 0.00 0.00
9:53 pm 21:53 Cloudy -8 -22.2 -13 -25 78 78 VRB 5 7 30.00 1016 10 16 0.00 0.00
10:53 pm 22:53 Cloudy -5 -20.6 -12 -24.4 72 72 WSW 7 11 30.02 1017 10 16 0.00 0.00
11:53 pm 23:53 Cloudy -4 -20 -11 -23.9 71 71 WSW 7 11 30.05 1018 10 16 0.00 0.00

Powered by AerisWeather